Temperature
21 21 21 21 19 18 19 20 20 21 21 21 21 20 19 18 18 18 18 18 18 18 18 18 18 18 18 18 18 18 18 18 18 18 18 18 18 18 18 18 18 18 18 18 18 18 18 18 18
22 22 21 21 18 18 20 20 20 21 22 22 21 20 19 18 18 18 18 18 18 18 18 18 18 18 18 18 18 18 18 18 18 18 17 17 18 18 17 17 18 18 18 18 18 18 18 18 18
22 22 21 18 19 19 20 20 21 22 22 22 21 20 19 19 18 18 18 18 18 18 18 18 18 18 18 18 18 18 18 18 17 17 17 17 17 17 17 17 17 17 17 18 18 18 18 17 17
22 22 21 18 20 20 21 21 21 22 22 21 20 19 19 19 19 18 18 18 18 18 18 18 18 18 18 18 17 17 17 17 17 17 17 17 17 17 17 17 17 17 17 17 17 17 17 17 17
22 22 18 18 20 21 21 22 22 21 21 21 20 19 19 19 19 19 18 18 18 18 18 18 18 18 18 17 17 17 17 17 17 17 17 17 17 17 17 17 17 17 17 17 17 17 17 17 17
22 19 18 19 20 21 21 22 22 21 21 20 20 19 18 19 19 18 18 18 18 18 18 18 18 17 17 17 17 17 17 17 17 17 17 17 17 17 17 17 17 17 17 17 17 17 17 17 17
21 18 18 19 20 20 22 22 22 21 21 21 20 18 18 18 19 19 18 18 18 18 18 18 18 17 17 17 17 17 17 17 17 17 17 17 17 17 17 16 16 16 16 17 17 17 17 17 17
22 18 19 19 20 20 22 22 22 21 21 21 20 19 18 19 18 18 18 18 18 18 18 18 18 17 17 17 17 17 17 17 17 17 17 17 17 17 16 16 16 16 16 16 16 16 16 16 16
23 18 18 20 20 20 21 22 21 21 21 21 20 20 20 19 18 18 18 18 18 18 18 18 18 17 17 17 17 17 17 17 17 16 16 16 16 16 16 16 16 16 16 16 16 16 16 16 16
21 18 20 21 21 21 21 21 21 21 20 20 20 20 19 19 19 19 18 18 18 18 18 18 17 17 17 17 17 17 16 16 16 16 16 16 16 16 16 16 16 16 16 16 16 16 16 16 16
21 19 21 21 22 22 21 21 21 20 19 19 20 19 19 19 19 19 18 18 18 18 18 17 17 17 17 17 17 17 16 16 16 16 16 16 16 16 16 16 16 16 16 16 16 16 16 16 16
21 21 22 22 22 22 21 21 20 20 20 21 20 20 19 19 19 19 19 18 18 18 18 17 17 17 17 17 17 16 16 16 16 16 16 16 16 16 16 15 15 15 15 16 15 15 15 15 15
21 21 22 22 22 22 21 21 20 20 21 21 20 20 20 19 19 19 19 18 18 18 18 17 17 17 17 17 16 16 16 16 16 16 16 16 16 16 16 15 15 15 15 15 15 15 15 15 15
22 22 22 22 22 21 21 20 20 20 20 20 20 20 20 19 19 19 19 18 18 18 18 17 17 17 17 17 17 16 16 16 16 16 16 16 16 16 15 15 15 15 15 15 15 15 15 15 15
22 21 20 21 21 21 21 19 19 20 20 20 19 19 19 19 19 19 19 18 18 18 18 17 17 17 17 17 16 16 16 16 16 16 16 16 15 15 15 15 15 15 15 15 15 15 15 15 15
21 20 19 20 21 21 20 18 19 20 20 19 19 19 19 19 19 19 18 18 18 18 18 17 17 17 17 17 16 16 16 16 16 16 15 15 15 15 15 15 15 15 15 15 15 15 15 15 15
19 18 19 20 21 20 19 18 18 20 20 19 19 19 19 19 18 18 18 18 18 18 18 17 17 17 17 16 16 16 16 16 16 15 15 15 15 15 15 15 15 15 15 15 15 15 15 14 14
19 19 19 19 20 20 19 18 18 19 19 18 18 18 18 18 19 18 18 18 18 18 18 17 17 17 17 16 16 16 16 15 15 15 15 15 15 15 15 15 15 15 15 15 14 14 14 14 14
20 19 19 19 20 19 18 18 18 18 18 18 18 18 18 18 19 18 18 18 18 18 17 17 17 17 16 16 16 16 16 15 15 15 15 15 15 15 15 15 14 14 14 14 14 14 14 14 14
20 19 19 20 20 20 18 18 17 17 18 18 18 18 18 18 18 18 18 18 18 18 17 17 17 17 16 16 16 16 15 15 15 15 15 15 15 15 14 14 14 14 14 14 14 14 14 14 14
20 19 19 19 19 19 18 17 17 17 18 18 18 19 18 18 18 18 18 18 18 18 17 17 17 16 16 16 16 15 15 15 15 15 15 14 14 14 14 14 14 14 14 14 14 14 14 14 14
19 20 20 20 18 17 18 16 16 17 17 17 17 18 18 18 18 18 18 18 18 18 17 17 16 16 16 16 15 15 15 15 15 14 14 14 14 14 14 14 14 14 14 14 14 14 13 14 14
20 20 20 19 18 17 17 16 16 16 16 16 17 17 18 18 18 18 18 18 17 17 17 17 16 16 16 15 15 15 15 15 14 14 14 14 14 14 14 14 14 14 14 14 13 13 13 13 13
20 19 18 16 16 16 17 16 16 15 16 17 17 17 18 18 18 18 18 17 17 17 17 16 16 16 15 15 15 15 15 14 14 14 14 14 14 14 14 14 14 13 13 13 13 13 13 13 13
19 16 16 16 15 15 16 16 16 17 17 17 17 17 18 18 18 18 17 17 17 17 16 16 16 15 15 15 15 15 14 14 14 14 14 14 13 13 13 13 13 13 13 13 13 13 13 13 13
18 17 16 16 15 15 16 16 16 18 18 18 18 18 18 18 17 18 17 17 17 16 16 16 15 15 15 15 15 14 14 14 14 14 14 14 13 13 13 13 13 13 13 13 13 13 13 13 13
18 17 16 15 16 15 15 16 17 17 17 17 17 17 17 17 17 17 17 17 17 16 16 16 15 15 15 14 14 14 14 14 14 14 13 13 13 13 13 13 13 13 13 13 13 13 13 13 13
18 17 15 15 15 15 16 16 16 16 16 16 16 16 16 16 17 17 17 17 16 16 16 15 15 15 15 14 14 14 14 13 13 13 13 13 13 13 13 13 13 13 13 13 13 13 13 12 12
18 17 16 14 14 14 15 15 17 16 16 15 15 16 16 16 16 16 16 16 16 16 15 15 15 14 14 14 14 13 13 13 13 13 13 13 13 13 13 13 13 13 12 12 12 12 12 12 12
18 17 15 15 15 14 13 15 17 16 16 16 16 16 16 16 16 16 16 16 15 15 15 14 14 14 14 14 13 13 13 13 13 13 13 13 13 13 13 12 12 12 12 12 12 12 12 12 12
Wind_Speed
6 4 2 3 5 6 4 2 2 4 5 5 8 10 8 6 4 5 2 5 7 4 4 6 8 9 10 10 10 11 12 12 12 11 11 11 10 11 12 12 12 10 10 10 10 10 10 10 10
3 2 3 4 5 4 2 1 5 4 6 7 8 8 7 6 4 6 3 5 7 6 5 7 9 10 10 10 11 11 12 12 12 12 12 11 10 10 11 11 11 10 9 9 9 9 9 10 10
2 0 4 4 4 4 4 2 5 4 5 5 5 6 5 4 4 4 5 8 8 6 6 8 10 10 10 11 11 12 12 12 12 13 13 13 13 12 11 11 10 10 9 8 8 9 9 10 10
2 4 5 6 4 1 5 5 6 5 6 6 6 6 4 3 4 6 8 9 9 6 7 8 10 10 11 11 12 12 12 12 12 13 13 13 12 11 11 11 10 9 9 9 8 9 9 10 10
4 5 6 4 3 1 2 4 5 6 4 5 7 6 4 3 8 10 9 8 9 6 6 8 10 10 10 11 11 11 12 12 12 13 13 12 12 11 11 10 10 9 9 9 9 9 9 9 10
4 5 5 3 2 2 2 3 7 8 7 6 7 6 3 2 7 8 8 8 8 7 6 7 9 9 9 9 10 10 11 12 12 12 13 13 12 12 11 10 9 9 9 9 9 9 9 10 10
4 4 4 3 2 2 2 3 6 6 6 4 5 6 3 2 5 7 8 8 7 7 6 5 6 7 7 8 8 9 10 11 11 12 12 13 12 11 10 10 9 8 9 9 9 9 9 10 10
5 5 3 2 3 1 1 3 4 5 5 4 5 7 5 5 5 7 7 7 6 5 5 4 4 5 5 5 6 7 8 9 10 11 11 11 11 10 10 9 9 9 9 8 8 8 9 10 10
4 5 3 2 3 1 2 5 4 4 6 4 4 5 6 8 7 8 7 4 4 4 3 4 3 4 4 4 5 6 7 7 8 9 10 10 8 8 8 8 9 10 9 8 8 9 11 11 11
5 4 3 2 4 4 3 4 3 4 6 4 5 5 8 8 8 7 6 5 4 3 3 3 4 3 3 3 4 4 5 5 6 6 6 7 7 6 7 8 9 9 10 10 10 11 11 10 8
4 4 2 2 3 5 4 3 3 6 3 4 7 8 8 7 7 7 5 5 4 4 4 4 4 4 3 3 3 3 4 4 5 5 5 6 6 5 6 5 6 7 8 8 9 9 8 8 7
4 2 3 3 3 4 3 3 3 3 5 6 8 10 9 8 7 7 6 5 4 4 4 4 5 4 3 4 3 3 3 3 3 5 6 5 4 3 3 3 4 5 5 6 6 6 7 8 8
3 2 3 3 4 4 4 4 4 2 3 5 8 8 8 8 6 5 5 5 4 3 3 4 5 5 4 3 2 3 3 3 5 6 6 6 3 3 3 3 4 5 6 6 5 5 6 6 7
3 3 2 2 3 2 5 2 3 3 5 6 7 7 6 6 5 5 4 4 3 3 3 4 4 4 4 3 2 2 3 4 5 5 6 7 5 3 3 4 4 4 5 6 6 5 5 5 5
3 3 2 0 2 2 5 2 2 5 6 7 6 6 6 6 5 6 5 5 5 4 3 4 5 5 5 4 3 3 4 5 4 4 6 6 6 4 4 3 3 3 6 7 6 6 6 6 6
3 3 0 3 2 3 6 3 5 4 7 6 5 5 5 5 5 5 5 5 5 4 4 4 5 5 4 3 3 3 4 5 4 4 5 6 6 6 4 3 3 4 6 5 4 4 5 5 5
2 2 3 3 3 3 4 4 5 4 6 6 6 6 5 5 5 4 4 5 5 5 5 4 4 4 4 3 4 4 5 4 4 5 5 6 6 6 5 3 3 5 5 4 4 4 4 4 4
3 3 3 4 3 2 3 4 4 4 6 6 6 5 5 6 7 6 5 5 5 5 5 5 4 4 4 4 4 3 4 3 3 4 4 5 5 6 6 4 4 4 4 4 4 4 4 3 3
4 3 3 5 3 2 4 4 5 5 5 5 6 5 6 7 6 5 5 5 6 5 5 5 4 3 4 3 3 2 1 1 1 2 4 5 5 5 5 3 3 3 4 3 4 4 4 3 3
2 2 2 3 2 2 2 3 4 5 7 8 8 8 8 6 4 5 5 5 5 6 5 4 4 4 3 2 2 2 2 1 1 1 2 3 4 4 4 3 3 3 3 4 3 3 3 2 2
2 4 4 3 2 2 1 4 4 4 3 4 6 7 7 8 8 7 6 5 5 6 6 5 4 4 3 3 3 3 3 2 2 2 0 1 3 3 3 3 2 3 3 3 3 3 4 2 1
4 5 4 2 1 2 2 3 6 4 3 4 5 5 6 6 6 6 6 6 6 6 6 6 5 4 3 4 4 4 3 1 1 1 1 0 2 2 3 3 2 2 2 3 3 3 3 3 2
5 4 2 2 3 1 1 2 6 2 3 7 7 7 7 7 7 7 7 7 6 6 6 5 5 4 4 3 4 4 3 2 1 0 1 0 0 1 2 3 2 2 2 3 3 3 3 2 2
1 4 5 5 3 2 4 4 5 4 7 6 7 7 7 8 7 6 5 4 4 4 5 5 5 4 4 4 4 4 4 3 2 1 1 1 1 1 1 2 2 2 2 3 3 3 3 2 2
5 5 4 4 3 5 3 3 6 6 6 7 8 9 8 7 7 6 6 5 5 5 5 5 5 3 3 4 4 4 4 4 4 3 3 2 1 1 2 1 2 2 2 3 3 3 3 3 3
2 7 6 4 4 4 2 3 5 4 3 3 5 6 6 6 7 7 8 7 6 6 5 6 5 4 3 3 3 2 3 2 2 3 3 3 3 3 3 2 2 2 2 3 3 3 2 2 2
3 3 6 5 2 2 4 4 5 3 3 1 3 4 5 6 6 7 7 6 7 6 6 7 6 4 3 3 2 2 2 2 2 2 2 2 3 3 3 3 2 1 2 3 4 3 3 3 2
4 5 5 3 2 3 4 4 4 4 3 1 2 4 4 3 4 5 6 6 6 6 5 5 6 5 4 3 3 2 1 1 2 2 2 2 2 2 3 4 3 2 2 3 3 3 2 3 2
1 2 4 3 4 4 3 6 4 5 4 4 4 4 5 5 5 5 5 5 5 5 4 4 4 4 3 3 3 2 1 1 1 2 2 1 1 2 3 4 4 3 3 3 3 3 4 3 2
4 4 5 4 3 4 3 6 4 3 3 4 5 4 4 5 5 4 5 5 5 5 4 4 4 4 4 3 3 2 2 1 1 1 1 2 2 2 2 3 3 3 3 3 3 4 4 4 3
Wind_Direction
319 325 78 57 54 57 65 43 101 62 60 60 74 82 87 76 95 127 186 137 134 129 102 83 76 75 73 70 67 65 64 62 60 60 61 66 74 82 90 94 97 98 101 101 101 100 100 98 101
334 358 62 55 76 76 56 104 95 94 134 121 78 77 78 73 87 112 121 137 130 118 102 89 85 81 78 76 72 70 67 65 63 61 59 60 73 86 91 94 96 96 99 101 101 102 100 102 102
311 56 74 64 83 128 140 149 118 96 100 101 79 60 76 99 105 125 150 136 118 106 100 94 90 86 81 76 74 72 70 70 67 64 61 62 77 86 89 90 90 90 94 98 103 104 103 102 101
49 46 55 67 79 158 152 156 131 99 61 63 95 69 61 78 117 134 139 129 118 112 106 101 97 91 84 77 74 73 71 70 69 66 64 67 74 80 84 86 86 88 94 101 103 105 104 101 99
66 68 60 65 64 43 131 146 128 106 81 76 92 92 66 44 103 122 130 128 126 125 116 109 103 95 88 81 76 73 72 70 69 66 65 67 73 79 81 84 85 86 92 99 101 102 100 99 101
53 67 79 83 72 39 62 107 98 93 105 102 95 101 89 102 116 131 127 124 128 128 120 113 107 103 93 87 82 75 73 70 69 68 67 69 73 78 78 80 82 88 94 98 99 100 100 100 99
97 87 114 127 102 62 83 95 103 111 106 111 115 105 122 145 145 135 121 119 119 124 119 111 110 108 100 91 84 78 75 73 72 70 69 71 71 74 75 74 81 87 93 95 99 100 100 98 97
121 98 81 97 107 93 36 78 95 97 98 105 106 129 162 189 143 118 112 111 113 122 129 121 112 109 106 95 88 83 76 72 71 71 69 69 70 70 70 70 77 81 85 90 100 106 103 99 96
88 80 106 156 143 167 90 80 56 63 88 74 80 135 157 145 124 110 101 96 114 123 136 140 131 124 121 107 91 81 73 68 69 70 70 65 59 62 64 66 71 74 76 78 93 104 100 96 95
84 111 179 183 156 148 110 99 104 80 75 75 76 91 121 128 127 125 126 135 145 151 160 161 154 147 132 117 90 78 72 63 66 64 65 64 61 59 60 59 62 67 68 71 86 98 94 86 86
113 145 151 98 114 114 102 77 83 113 112 161 154 150 144 138 139 145 155 156 163 169 161 164 162 154 137 113 101 79 69 62 61 66 73 73 68 57 52 47 43 49 57 60 71 79 79 80 85
108 127 131 128 109 107 105 99 80 123 179 180 163 157 153 153 162 165 164 163 160 151 158 160 156 145 137 125 113 96 85 73 61 62 76 81 71 56 50 45 39 46 57 63 66 72 77 80 82
99 127 109 124 108 112 107 108 116 143 157 145 145 149 155 159 164 165 163 160 149 151 153 158 151 143 140 125 113 106 98 84 74 71 71 79 74 67 63 54 49 51 65 72 72 73 76 76 76
159 133 111 119 115 118 116 112 109 181 142 131 143 151 154 151 151 147 143 134 143 149 153 146 140 142 132 131 127 120 108 94 86 81 80 83 82 74 70 66 54 52 68 77 81 80 78 74 77
120 93 27 13 140 147 111 53 184 188 142 143 160 161 153 153 158 162 164 155 155 148 140 142 141 128 127 131 133 116 106 101 95 85 85 87 85 81 75 75 69 57 75 80 78 73 76 79 77
67 85 166 262 175 161 121 208 240 197 146 160 169 171 166 167 174 182 170 157 156 144 131 122 127 121 120 121 112 103 98 93 86 81 80 83 86 89 80 79 73 71 78 78 84 75 77 72 71
44 147 214 258 218 159 138 212 244 201 160 174 186 188 184 180 181 192 179 160 155 145 133 118 111 113 115 104 92 90 92 85 80 75 72 76 83 89 90 85 78 82 78 76 91 77 87 86 78
216 202 212 228 237 155 164 215 232 212 170 179 192 194 193 192 197 188 179 157 146 138 129 123 117 108 101 97 89 77 71 75 73 74 76 82 78 83 86 86 79 85 88 80 86 88 78 89 91
174 171 209 237 235 166 192 220 226 203 178 186 193 194 199 211 208 178 167 149 136 132 130 131 127 125 109 101 110 112 105 91 84 77 86 88 86 85 86 89 89 94 105 109 108 103 91 76 83
151 168 228 271 267 191 200 245 240 210 197 190 187 194 201 207 197 173 164 153 152 150 149 147 143 139 128 122 129 138 142 127 125 63 79 96 96 93 101 103 117 114 113 101 99 106 102 91 88
238 195 206 228 323 14 81 320 286 256 216 195 188 193 197 196 187 184 172 168 164 164 164 163 158 145 134 119 99 82 63 50 38 26 16 73 100 101 108 120 124 123 124 133 132 124 120 126 61
241 228 204 196 123 265 160 263 281 252 237 217 209 196 201 198 185 182 178 173 180 183 169 162 157 150 143 129 122 123 127 147 215 217 233 255 109 121 119 117 125 131 133 140 154 140 134 133 139
221 228 213 212 177 252 264 191 283 251 239 237 222 207 202 197 183 184 184 182 184 175 165 166 157 154 156 149 144 140 143 175 172 139 138 165 325 106 127 126 128 138 146 151 148 129 127 131 142
141 46 29 41 82 269 234 189 275 228 217 223 218 212 197 192 186 183 180 169 174 162 157 160 156 163 160 155 156 156 160 161 150 163 189 220 254 273 243 138 127 139 149 154 153 148 139 136 128
73 81 26 358 0 258 238 186 247 245 227 206 202 203 194 183 176 175 170 170 171 164 163 157 152 158 161 161 169 174 176 173 182 192 197 193 197 215 229 177 158 156 156 153 143 136 141 141 133
166 140 159 203 230 276 306 225 252 272 247 203 188 185 182 179 177 180 180 175 172 166 160 153 153 152 150 154 174 176 175 181 194 198 196 197 202 207 201 191 171 164 155 148 142 137 149 139 140
143 180 176 158 210 256 275 284 303 353 17 88 158 162 181 191 190 185 178 171 167 165 163 165 162 159 159 154 147 159 173 183 201 211 206 208 208 201 190 186 174 179 168 159 151 150 157 143 142
150 149 92 123 179 250 280 264 252 274 289 286 190 184 187 184 187 181 176 175 170 170 168 164 162 166 166 158 166 173 186 199 191 179 192 203 207 203 179 180 174 179 180 164 159 155 153 139 148
120 121 122 140 167 176 250 268 229 217 223 205 201 197 187 184 185 185 179 176 163 155 153 157 167 164 164 168 175 175 199 203 180 170 184 182 174 171 170 174 172 180 179 173 165 168 158 153 157
178 176 149 166 234 188 201 265 274 228 230 196 195 198 192 189 188 184 173 163 159 159 166 173 178 178 183 181 174 179 187 165 157 196 199 179 165 166 171 163 163 172 171 171 172 177 167 163 166
Height
1506 1505 1505 1505 1509 1520 1525 1520 1514 1513 1513 1514 1513 1514 1517 1521 1525 1532 1529 1527 1527 1526 1525 1524 1522 1521 1520 1518 1517 1516 1514 1512 1510 1508 1506 1503 1501 1501 1502 1503 1505 1506 1507 1508 1509 1509 1510 1510 1511
1507 1506 1507 1507 1517 1531 1528 1518 1515 1513 1514 1514 1515 1517 1519 1523 1524 1526 1527 1528 1527 1526 1525 1524 1523 1522 1521 1520 1518 1517 1515 1514 1512 1510 1507 1503 1499 1501 1504 1506 1506 1507 1508 1509 1509 1510 1511 1511 1512
1506 1506 1508 1511 1521 1528 1525 1517 1514 1513 1513 1513 1517 1519 1522 1525 1526 1527 1528 1528 1528 1527 1526 1525 1524 1523 1522 1521 1520 1518 1517 1515 1513 1511 1509 1505 1502 1504 1506 1507 1508 1508 1509 1509 1510 1511 1511 1512 1512
1507 1508 1510 1517 1523 1519 1516 1515 1513 1513 1515 1515 1517 1522 1525 1527 1527 1528 1528 1529 1528 1528 1527 1526 1525 1524 1523 1522 1521 1520 1518 1517 1515 1513 1511 1509 1507 1507 1508 1508 1509 1509 1509 1510 1510 1511 1512 1512 1513
1507 1509 1517 1524 1522 1517 1513 1513 1512 1514 1516 1518 1518 1523 1527 1528 1528 1529 1529 1529 1529 1528 1528 1527 1526 1525 1524 1523 1522 1521 1520 1518 1517 1515 1514 1512 1511 1510 1510 1510 1510 1509 1510 1510 1511 1512 1512 1513 1514
1509 1511 1525 1530 1523 1517 1514 1513 1514 1516 1518 1520 1521 1524 1528 1530 1530 1530 1530 1530 1530 1529 1529 1528 1527 1526 1525 1524 1523 1522 1521 1520 1518 1517 1516 1514 1513 1512 1512 1511 1510 1510 1510 1510 1511 1512 1512 1513 1514
1510 1516 1524 1525 1524 1520 1516 1514 1515 1517 1519 1520 1521 1525 1529 1530 1531 1531 1531 1531 1530 1530 1530 1529 1528 1527 1527 1526 1525 1524 1523 1521 1520 1519 1517 1516 1515 1514 1513 1512 1511 1511 1510 1511 1511 1512 1513 1514 1515
1510 1516 1523 1524 1524 1522 1516 1515 1517 1517 1520 1522 1522 1524 1528 1530 1531 1531 1531 1531 1531 1531 1531 1530 1529 1529 1528 1527 1526 1525 1524 1523 1522 1521 1519 1518 1517 1516 1515 1514 1513 1512 1511 1511 1510 1511 1513 1514 1515
1510 1521 1527 1524 1522 1521 1517 1517 1519 1519 1520 1522 1522 1524 1526 1529 1530 1531 1532 1532 1532 1531 1531 1531 1530 1530 1529 1528 1527 1526 1525 1524 1523 1522 1521 1520 1519 1518 1517 1516 1515 1514 1512 1509 1507 1509 1512 1514 1516
1511 1524 1521 1517 1516 1517 1517 1517 1519 1521 1522 1523 1524 1525 1527 1528 1530 1530 1531 1532 1532 1531 1531 1531 1531 1530 1530 1529 1528 1527 1527 1526 1525 1524 1523 1522 1521 1520 1519 1518 1517 1516 1513 1510 1507 1509 1513 1516 1517
1512 1518 1516 1515 1515 1516 1517 1518 1519 1521 1524 1524 1524 1525 1527 1528 1530 1530 1531 1531 1531 1532 1531 1531 1531 1531 1530 1530 1529 1528 1528 1527 1526 1525 1524 1523 1522 1522 1521 1520 1519 1518 1516 1514 1512 1514 1516 1517 1519
1513 1514 1514 1515 1515 1516 1517 1519 1520 1520 1522 1523 1524 1525 1526 1528 1529 1530 1530 1531 1532 1531 1531 1531 1531 1531 1531 1530 1530 1529 1528 1528 1527 1526 1525 1525 1524 1523 1522 1522 1521 1520 1519 1518 1517 1518 1519 1520 1522
1514 1515 1515 1515 1516 1517 1518 1519 1520 1521 1522 1523 1524 1525 1526 1527 1529 1530 1530 1531 1531 1531 1531 1531 1531 1531 1531 1531 1530 1530 1529 1528 1528 1527 1526 1526 1525 1525 1524 1523 1523 1522 1522 1522 1521 1521 1522 1523 1523
1514 1514 1515 1516 1516 1517 1518 1520 1521 1522 1522 1523 1524 1525 1526 1527 1528 1529 1530 1530 1530 1531 1531 1531 1531 1531 1530 1530 1530 1530 1530 1529 1528 1528 1528 1527 1526 1526 1525 1525 1525 1524 1524 1524 1524 1524 1524 1525 1525
1514 1516 1518 1516 1516 1518 1519 1523 1522 1521 1522 1523 1524 1525 1526 1527 1528 1528 1529 1529 1530 1530 1531 1531 1531 1531 1530 1530 1530 1530 1530 1530 1529 1529 1528 1528 1527 1527 1527 1526 1526 1526 1526 1526 1526 1526 1526 1527 1527
1515 1521 1526 1519 1516 1517 1522 1530 1522 1521 1522 1523 1524 1525 1526 1526 1527 1528 1528 1529 1529 1530 1530 1530 1531 1531 1530 1530 1530 1530 1530 1530 1529 1529 1529 1529 1528 1528 1528 1528 1527 1528 1528 1528 1528 1528 1528 1528 1528
1523 1529 1528 1522 1516 1517 1521 1526 1521 1521 1521 1522 1523 1523 1524 1525 1526 1527 1528 1528 1529 1529 1530 1530 1530 1530 1530 1530 1530 1530 1530 1529 1529 1529 1529 1529 1529 1529 1529 1528 1528 1529 1529 1529 1529 1529 1529 1529 1530
1529 1528 1526 1524 1517 1517 1521 1523 1520 1519 1519 1520 1521 1522 1523 1524 1525 1526 1527 1527 1528 1528 1529 1529 1530 1530 1530 1530 1530 1530 1530 1529 1529 1529 1529 1529 1529 1529 1529 1529 1529 1529 1529 1529 1530 1530 1530 1530 1531
1519 1523 1525 1521 1515 1517 1521 1522 1519 1517 1518 1519 1519 1520 1522 1522 1523 1525 1526 1526 1527 1527 1528 1528 1529 1529 1529 1529 1529 1529 1529 1529 1529 1529 1529 1529 1529 1529 1529 1529 1529 1529 1530 1530 1530 1531 1531 1532 1532
1517 1522 1523 1519 1514 1516 1521 1521 1517 1516 1515 1516 1517 1518 1519 1520 1521 1523 1524 1525 1526 1526 1527 1528 1528 1529 1529 1529 1529 1529 1529 1529 1529 1529 1529 1529 1529 1529 1529 1528 1529 1529 1530 1530 1530 1531 1531 1532 1533
1518 1520 1521 1520 1516 1516 1520 1525 1520 1515 1514 1515 1515 1516 1517 1518 1519 1521 1522 1524 1525 1525 1526 1526 1527 1528 1528 1528 1529 1528 1529 1528 1528 1528 1528 1528 1528 1528 1528 1528 1529 1529 1529 1530 1530 1531 1531 1532 1533
1519 1512 1513 1515 1523 1529 1525 1538 1524 1516 1514 1514 1514 1514 1515 1516 1518 1519 1521 1522 1523 1523 1524 1525 1526 1526 1527 1527 1527 1527 1527 1527 1527 1527 1527 1528 1527 1527 1528 1528 1528 1529 1529 1529 1530 1531 1531 1532 1532
1512 1508 1511 1514 1521 1529 1527 1534 1528 1517 1517 1513 1511 1511 1512 1514 1516 1517 1519 1520 1521 1522 1523 1524 1524 1525 1526 1526 1526 1526 1526 1526 1526 1526 1527 1527 1527 1527 1527 1527 1527 1528 1528 1529 1529 1530 1531 1532 1532
1506 1511 1515 1521 1527 1537 1528 1533 1530 1519 1513 1509 1508 1508 1509 1511 1513 1515 1517 1518 1519 1520 1521 1522 1523 1524 1524 1524 1525 1525 1524 1524 1525 1525 1525 1525 1525 1525 1526 1526 1526 1526 1527 1528 1528 1529 1530 1531 1531
1510 1524 1539 1540 1544 1540 1526 1528 1525 1509 1504 1503 1504 1505 1507 1509 1510 1512 1514 1515 1517 1518 1519 1520 1521 1522 1522 1523 1523 1523 1523 1523 1523 1523 1523 1523 1523 1523 1524 1524 1524 1525 1526 1526 1527 1528 1529 1529 1530
1513 1522 1540 1547 1547 1539 1526 1527 1516 1504 1501 1500 1501 1503 1505 1507 1508 1510 1511 1513 1514 1515 1517 1518 1519 1520 1520 1521 1521 1521 1521 1521 1521 1521 1521 1521 1521 1521 1522 1522 1523 1523 1524 1525 1526 1527 1527 1528 1529
1514 1520 1520 1533 1535 1539 1533 1522 1510 1503 1501 1501 1501 1502 1504 1505 1506 1507 1509 1510 1512 1513 1515 1516 1517 1518 1518 1518 1519 1519 1519 1519 1519 1519 1519 1519 1519 1519 1520 1520 1521 1522 1522 1523 1524 1525 1526 1526 1527
1507 1513 1525 1532 1540 1544 1534 1526 1521 1509 1505 1503 1502 1501 1502 1503 1504 1506 1507 1508 1510 1511 1513 1514 1515 1515 1516 1516 1516 1517 1517 1516 1516 1516 1516 1517 1517 1517 1518 1518 1519 1519 1520 1521 1522 1523 1524 1525 1525
1511 1514 1520 1530 1533 1541 1541 1530 1507 1505 1502 1502 1501 1501 1501 1501 1502 1503 1505 1506 1508 1509 1511 1512 1513 1513 1514 1514 1514 1514 1514 1514 1514 1514 1514 1514 1514 1515 1515 1516 1517 1517 1518 1519 1520 1521 1522 1522 1523
1506 1511 1518 1530 1532 1533 1537 1528 1500 1501 1500 1499 1500 1500 1500 1500 1501 1502 1503 1504 1505 1507 1508 1510 1510 1511 1511 1512 1512 1512 1512 1512 1512 1512 1512 1512 1512 1513 1513 1514 1514 1515 1516 1517 1517 1518 1519 1520 1521